Location: New Canada
(47.1017°N, 68.5042°W)
Time: 17:10:55
(UTC+00:00)

KKS-1 - Pass Details

Date: 28 April 2024
Orbit: 628 x 639 km, 98.1° (Epoch: 21 May)

Event Time Altitude Azimuth Distance (km) Brightness Sun altitude
Rises 03:53:10 0° 14° (NNE) 2,957 ? -28.0°
Reaches altitude 10° 03:55:24 10° 15° (NNE) 2,043 ? -28.1°
Enters shadow 03:58:42 50° 22° (NNE) 824 ? -28.2°
